TimeMST,TemperatureF,Dew PointF,Humidity,Sea Level PressureIn,VisibilityMPH,Wind Direction,Wind SpeedMPH,Gust SpeedMPH,PrecipitationIn,Events,Conditions,WindDirDegrees,DateUTC
12:53 AM,19.9,17.1,89,29.93,10.0,South,6.9,-,0.00,,Overcast,170,2013-02-11 07:53:00
1:53 AM,19.9,17.1,89,29.93,10.0,South,5.8,-,N/A,,Overcast,180,2013-02-11 08:53:00
2:53 AM,19.9,16.0,85,29.93,10.0,South,5.8,-,N/A,,Overcast,170,2013-02-11 09:53:00
3:53 AM,19.9,16.0,85,29.93,10.0,SSW,4.6,-,N/A,,Overcast,200,2013-02-11 10:53:00
4:53 AM,19.9,16.0,85,29.94,10.0,Calm,Calm,-,N/A,,Overcast,0,2013-02-11 11:53:00
5:53 AM,17.1,12.9,84,29.96,10.0,Calm,Calm,-,0.00,,Overcast,0,2013-02-11 12:53:00
6:07 AM,17.6,15.8,93,29.92,10.0,Calm,Calm,-,N/A,,Overcast,0,2013-02-11 13:07:00
6:28 AM,17.6,14.0,86,29.92,10.0,Calm,Calm,-,N/A,,Overcast,0,2013-02-11 13:28:00
6:53 AM,17.1,14.0,88,29.96,10.0,Calm,Calm,-,N/A,,Overcast,0,2013-02-11 13:53:00
7:45 AM,17.6,14.0,86,29.94,10.0,Calm,Calm,-,N/A,,Overcast,0,2013-02-11 14:45:00
7:53 AM,17.1,15.1,92,29.98,10.0,Calm,Calm,-,N/A,,Overcast,0,2013-02-11 14:53:00
8:26 AM,19.4,15.8,86,29.95,10.0,Calm,Calm,-,N/A,,Overcast,0,2013-02-11 15:26:00
8:53 AM,19.9,15.1,81,30.00,10.0,Calm,Calm,-,N/A,,Overcast,0,2013-02-11 15:53:00
9:23 AM,21.2,15.8,80,29.95,10.0,Calm,Calm,-,N/A,,Overcast,0,2013-02-11 16:23:00
9:53 AM,24.1,15.1,69,29.99,10.0,Calm,Calm,-,N/A,,Overcast,0,2013-02-11 16:53:00
10:11 AM,23.0,15.8,74,29.96,10.0,Calm,Calm,-,N/A,,Overcast,0,2013-02-11 17:11:00
10:26 AM,24.8,15.8,69,29.96,10.0,Calm,Calm,-,N/A,,Overcast,0,2013-02-11 17:26:00
10:53 AM,25.0,16.0,69,29.99,10.0,Calm,Calm,-,N/A,,Mostly Cloudy,0,2013-02-11 17:53:00
11:13 AM,26.6,17.6,69,29.96,10.0,North,3.5,-,N/A,,Mostly Cloudy,360,2013-02-11 18:13:00
11:36 AM,26.6,17.6,69,29.95,10.0,SSW,6.9,-,N/A,,Mostly Cloudy,210,2013-02-11 18:36:00
11:44 AM,26.6,15.8,64,29.95,10.0,SW,6.9,-,N/A,,Mostly Cloudy,230,2013-02-11 18:44:00
11:53 AM,26.1,15.1,63,29.98,10.0,SSW,6.9,-,N/A,,Mostly Cloudy,200,2013-02-11 18:53:00
12:53 PM,27.0,12.9,56,29.95,10.0,WSW,5.8,-,N/A,,Overcast,240,2013-02-11 19:53:00
1:53 PM,26.1,17.1,69,29.95,10.0,SSW,4.6,-,0.00,,Overcast,210,2013-02-11 20:53:00
2:53 PM,27.0,19.0,72,29.94,10.0,South,6.9,-,N/A,,Overcast,190,2013-02-11 21:53:00
3:53 PM,28.0,18.0,66,29.94,10.0,Variable,3.5,-,0.00,,Mostly Cloudy,0,2013-02-11 22:53:00
4:53 PM,25.0,19.0,78,29.97,5.0,Calm,Calm,-,0.00,Snow,Light Snow,0,2013-02-11 23:53:00
5:53 PM,24.1,19.9,84,30.00,10.0,NNW,5.8,-,0.00,,Overcast,330,2013-02-12 00:53:00
6:53 PM,24.1,18.0,77,30.01,10.0,North,10.4,-,N/A,,Overcast,10,2013-02-12 01:53:00
7:53 PM,23.0,17.1,78,30.04,10.0,NNW,6.9,-,N/A,,Overcast,340,2013-02-12 02:53:00
8:53 PM,19.9,12.9,74,30.04,10.0,North,6.9,-,N/A,,Overcast,360,2013-02-12 03:53:00
9:53 PM,19.9,12.9,74,30.04,10.0,North,8.1,-,N/A,,Overcast,10,2013-02-12 04:53:00
10:53 PM,18.0,12.0,78,30.05,10.0,North,8.1,-,N/A,,Partly Cloudy,10,2013-02-12 05:53:00
11:53 PM,15.1,10.9,84,30.06,10.0,North,8.1,-,N/A,,Clear,350,2013-02-12 06:53:00